TimePDT,TemperatureF,Dew PointF,Humidity,Sea Level PressureIn,VisibilityMPH,Wind Direction,Wind SpeedMPH,Gust SpeedMPH,PrecipitationIn,Events,Conditions,WindDirDegrees,DateUTC
12:56 AM,73.0,36.0,26,29.86,8.0,West,11.5,-,N/A,,Clear,270,2013-06-01 07:56:00
1:56 AM,71.1,35.1,27,29.85,10.0,West,4.6,-,N/A,,Clear,270,2013-06-01 08:56:00
2:56 AM,64.9,34.0,32,29.84,10.0,WNW,3.5,-,N/A,,Clear,300,2013-06-01 09:56:00
3:56 AM,62.1,36.0,38,29.85,10.0,West,4.6,-,N/A,,Clear,280,2013-06-01 10:56:00
4:56 AM,57.0,35.1,44,29.86,10.0,NW,4.6,-,N/A,,Clear,310,2013-06-01 11:56:00
5:56 AM,57.9,36.0,44,29.87,10.0,West,5.8,-,N/A,,Clear,270,2013-06-01 12:56:00
6:56 AM,66.0,37.0,34,29.89,10.0,Calm,Calm,-,N/A,,Clear,0,2013-06-01 13:56:00
7:56 AM,72.0,39.0,30,29.90,10.0,Calm,Calm,-,N/A,,Clear,0,2013-06-01 14:56:00
8:56 AM,78.1,37.0,23,29.90,10.0,Calm,Calm,-,N/A,,Clear,0,2013-06-01 15:56:00
9:56 AM,84.9,35.1,17,29.89,10.0,Calm,Calm,-,N/A,,Clear,0,2013-06-01 16:56:00
10:56 AM,90.0,27.0,10,29.88,10.0,East,8.1,-,N/A,,Clear,80,2013-06-01 17:56:00
11:56 AM,93.0,26.1,9,29.86,10.0,East,10.4,-,N/A,,Clear,90,2013-06-01 18:56:00
12:56 PM,97.0,24.1,7,29.83,10.0,East,8.1,17.3,N/A,,Clear,100,2013-06-01 19:56:00
1:56 PM,98.1,21.9,7,29.81,10.0,Calm,Calm,-,N/A,,Clear,0,2013-06-01 20:56:00
2:56 PM,100.0,21.0,6,29.79,10.0,ENE,8.1,-,N/A,,Clear,60,2013-06-01 21:56:00
3:56 PM,99.0,19.9,6,29.77,10.0,North,8.1,-,N/A,,Clear,360,2013-06-01 22:56:00
4:56 PM,100.9,19.9,5,29.75,10.0,NNW,4.6,-,N/A,,Clear,340,2013-06-01 23:56:00
5:56 PM,97.0,19.9,6,29.75,10.0,Calm,Calm,-,N/A,,Clear,0,2013-06-02 00:56:00
6:56 PM,91.0,36.0,14,29.75,10.0,WSW,13.8,19.6,N/A,,Clear,250,2013-06-02 01:56:00
7:47 PM,89.6,33.8,14,29.81,10.0,WSW,11.5,-,N/A,,Mostly Cloudy,250,2013-06-02 02:47:00
7:56 PM,88.0,35.1,15,29.75,10.0,West,6.9,-,N/A,,Overcast,280,2013-06-02 02:56:00
8:25 PM,87.8,30.2,13,29.82,10.0,WNW,6.9,-,N/A,,Partly Cloudy,300,2013-06-02 03:25:00
8:56 PM,84.0,39.9,21,29.76,10.0,West,11.5,-,N/A,,Clear,280,2013-06-02 03:56:00
9:56 PM,81.0,41.0,24,29.77,10.0,West,6.9,-,N/A,,Clear,270,2013-06-02 04:56:00
10:56 PM,82.9,37.9,20,29.76,10.0,West,11.5,-,N/A,,Mostly Cloudy,270,2013-06-02 05:56:00
11:56 PM,82.9,33.1,17,29.75,10.0,WSW,9.2,-,N/A,,Overcast,250,2013-06-02 06:56:00